EW3845 Weather Reports


time (UTC)temp
C
wind
direction
speed
KPH
gust
KPH
rain 1hr
cm
rain 24hr
cm
rain mn
cm
humidity
%
barometer
mb
20260509120035 21 27 0.0 0.0 0.00 0.00 0.00 55 1016.7
20260509114537 20 27 0.0 0.0 0.00 0.00 0.00 57 1016.7
20260509113037 19 28 0.0 0.0 0.00 0.00 0.00 56 1017.0
20260509111530 20 29 0.0 0.0 0.00 0.00 0.00 56 1017.2
20260509110032 21 31 0.0 0.0 0.00 0.00 0.00 55 1017.4
20260509104538 21 51 0.0 0.0 0.00 0.00 0.00 55 1017.5
20260509103024 20 16 0.0 0.0 0.00 0.00 0.00 58 1017.6
20260509101531 20 12 0.0 0.0 0.00 0.00 0.00 62 1017.6
20260509100017 19 29 0.0 0.0 0.00 0.00 0.00 65 1017.6
20260509094526 18 25 0.0 0.0 0.00 0.00 0.00 66 1017.6
20260509093012 18 36 0.0 0.0 0.00 0.00 0.00 66 1017.7
20260509091510 18 30 0.0 0.0 0.00 0.00 0.00 68 1017.8
20260509090007 17 32 0.0 0.0 0.00 0.00 0.00 71 1017.8
20260509084503 17 61 0.0 0.0 0.00 0.00 0.00 74 1018.0
20260509083103 16 44 0.0 0.0 0.00 0.00 0.00 78 1018.0
20260509081606 15 54 0.0 0.0 0.00 0.00 0.00 80 1018.0
20260509080050 13 34 0.0 0.0 0.00 0.00 0.00 84 1018.1
20260509080005 13 34 0.0 0.0 0.00 0.00 0.00 84 1018.0
20260509075602 13 35 0.0 0.0 0.00 0.00 0.00 84 1018.0
20260509075047 13 154 0.0 0.0 0.00 0.00 0.00 85 1018.0
20260509074600 13 19 0.0 0.0 0.00 0.00 0.00 85 1018.0
20260509074050 12 17 0.0 0.0 0.00 0.00 0.00 85 1018.1
20260509073606 12 172 0.0 0.0 0.00 0.00 0.00 85 1018.1
20260509073050 12 67 0.0 0.0 0.00 0.00 0.00 86 1018.0
20260509071545 11 46 0.0 0.0 0.00 0.00 0.00 87 1018.2
20260509070040 11 35 0.0 0.0 0.00 0.00 0.00 88 1018.1
20260509064543 11 32 0.0 0.0 0.00 0.00 0.00 90 1018.0
20260509063039 10 148 0.0 0.0 0.00 0.00 0.00 90 1018.0
20260509061537 10 24 0.0 0.0 0.00 0.00 0.00 91 1018.0
20260509060040 10 167 0.0 0.0 0.00 0.00 0.00 92 1018.1
20260509054545 9 63 0.0 0.0 0.00 0.00 0.00 92 1018.0
20260509053035 8 26 0.0 0.0 0.00 0.00 0.00 92 1017.9
20260509051538 8 22 0.0 0.0 0.00 0.00 0.00 92 1017.7
20260509050037 8 22 0.0 0.0 0.00 0.00 0.00 92 1017.6
20260509044533 8 22 0.0 0.0 0.00 0.00 0.00 92 1017.5
20260509043033 8 22 0.0 0.0 0.00 0.00 0.00 92 1017.4
20260509041556 7 22 0.0 0.0 0.00 0.00 0.00 91 1017.3
20260509040033 7 22 0.0 0.0 0.00 0.00 0.00 91 1017.4
20260509034531 7 22 0.0 0.0 0.00 0.00 0.00 91 1017.4
20260509033029 7 22 0.0 0.0 0.00 0.00 0.00 90 1017.4
20260509031534 7 22 0.0 0.0 0.00 0.00 0.00 90 1017.5
20260509030025 8 22 0.0 0.0 0.00 0.00 0.00 90 1017.7
20260509024525 8 22 0.0 0.0 0.00 0.00 0.00 90 1017.7
20260509023027 8 22 0.0 0.0 0.00 0.00 0.00 90 1017.7
20260509021532 8 22 0.0 0.0 0.00 0.00 0.00 90 1017.8
20260509020039 8 22 0.0 0.0 0.00 0.00 0.00 89 1017.7
20260509014522 8 22 0.0 0.0 0.00 0.00 0.00 88 1017.7
20260509013034 8 22 0.0 0.0 0.00 0.00 0.00 88 1017.8
20260509011520 8 22 0.0 0.0 0.00 0.00 0.00 88 1017.8
20260509010018 8 22 0.0 0.0 0.00 0.00 0.00 87 1017.9
20260509004519 8 22 0.0 0.0 0.00 0.00 0.00 87 1017.8
20260509003016 8 22 0.0 0.0 0.00 0.00 0.00 86 1017.9
20260509001514 9 22 0.0 0.0 0.00 0.00 0.00 86 1017.8
20260509000012 9 22 0.0 0.0 0.00 0.00 0.00 85 1017.8
20260508234510 10 22 0.0 0.0 0.00 0.00 0.00 85 1017.9
20260508233008 10 22 0.0 0.0 0.00 0.00 0.00 84 1018.0
20260508231506 10 22 0.0 0.0 0.00 0.00 0.00 83 1017.8
20260508230004 10 22 0.0 0.0 0.00 0.00 0.00 83 1017.7
20260508224500 11 22 0.0 0.0 0.00 0.00 0.00 82 1017.7
20260508223059 11 22 0.0 0.0 0.00 0.00 0.00 81 1017.7
20260508221557 11 22 0.0 0.0 0.00 0.00 0.00 81 1017.6
20260508220055 12 22 0.0 0.0 0.00 0.00 0.00 80 1017.7
20260508214554 12 22 0.0 0.0 0.00 0.00 0.00 79 1017.7
20260508213053 12 22 0.0 0.0 0.00 0.00 0.00 77 1017.8
20260508211554 12 22 0.0 0.0 0.00 0.00 0.00 76 1017.8
20260508210052 12 27 0.0 0.0 0.00 0.00 0.00 75 1017.8
20260508204555 13 19 0.0 0.0 0.00 0.00 0.00 74 1017.7
20260508203050 13 29 0.0 0.0 0.00 0.00 0.00 73 1017.6
20260508201549 12 22 0.0 0.0 0.00 0.00 0.00 74 1017.5
20260508200106 12 22 0.0 0.0 0.00 0.00 0.00 73 1017.4
20260508194549 13 22 0.0 0.0 0.00 0.00 0.00 72 1017.4
20260508193119 13 22 0.0 0.0 0.00 0.00 0.00 72 1017.3
20260508191645 14 22 0.0 0.0 0.00 0.00 0.00 71 1017.1
20260508191545 14 22 0.0 0.0 0.00 0.00 0.00 71 1017.1
20260508191052 14 22 0.0 0.0 0.00 0.00 0.00 70 1017.1
20260508190606 15 22 0.0 0.0 0.00 0.00 0.00 70 1017.0
20260508190054 15 22 0.0 0.0 0.00 0.00 0.00 69 1017.0
20260508190012 15 22 0.0 0.0 0.00 0.00 0.00 69 1016.9
20260508185605 15 22 0.0 0.0 0.00 0.00 0.00 69 1016.9
20260508185049 15 22 0.0 0.0 0.00 0.00 0.00 68 1016.9
20260508184601 15 22 0.0 0.0 0.00 0.00 0.00 68 1016.8
20260508184050 15 22 0.0 0.0 0.00 0.00 0.00 67 1016.8
20260508183002 15 22 0.0 0.0 0.00 0.00 0.00 66 1016.6
20260508182600 16 22 0.0 0.0 0.00 0.00 0.00 65 1016.7
20260508182047 16 22 0.0 0.0 0.00 0.00 0.00 65 1016.6
20260508181600 16 22 0.0 0.0 0.00 0.00 0.00 64 1016.6
20260508181049 16 22 0.0 0.0 0.00 0.00 0.00 64 1016.6
20260508180601 16 22 0.0 0.0 0.00 0.00 0.00 64 1016.6
20260508180145 16 22 0.0 0.0 0.00 0.00 0.00 64 1016.5
20260508180044 16 22 0.0 0.0 0.00 0.00 0.00 64 1016.5
20260508175556 16 22 0.0 0.0 0.00 0.00 0.00 63 1016.4
20260508175105 16 22 0.0 0.0 0.00 0.00 0.00 62 1016.4
20260508174658 16 22 0.0 0.0 0.00 0.00 0.00 61 1016.4
20260508174555 16 22 0.0 0.0 0.00 0.00 0.00 61 1016.5
20260508174042 16 22 0.0 0.0 0.00 0.00 0.00 60 1016.4
20260508173555 17 22 0.0 0.0 0.00 0.00 0.00 60 1016.4
20260508173144 16 22 0.0 0.0 0.00 0.00 0.00 59 1016.3
20260508173042 17 22 0.0 0.0 0.00 0.00 0.00 59 1016.4
20260508172555 17 22 0.0 0.0 0.00 0.00 0.00 60 1016.3
20260508172040 17 20 0.0 0.0 0.00 0.00 0.00 59 1016.2
20260508171554 17 22 0.0 0.0 0.00 0.00 0.00 59 1016.2
20260508171501 17 22 0.0 0.0 0.00 0.00 0.00 59 1016.2
20260508171100 17 22 0.0 0.0 0.00 0.00 0.00 58 1016.2
20260508170609 17 22 0.0 0.0 0.00 0.00 0.00 58 1016.2
20260508170156 17 21 0.0 0.0 0.00 0.00 0.00 59 1016.1
20260508170054 17 21 0.0 0.0 0.00 0.00 0.00 59 1016.2
20260508165544 17 20 0.0 0.0 0.00 0.00 0.00 58 1016.2
20260508165054 17 26 0.0 0.0 0.00 0.00 0.00 56 1016.2
20260508164528 17 24 0.0 0.0 0.00 0.00 0.00 56 1016.1
20260508163028 17 27 0.0 0.0 0.00 0.00 0.00 56 1016.1
20260508161526 17 19 0.0 0.0 0.00 0.00 0.00 57 1016.2
20260508160026 17 25 0.0 0.0 0.00 0.00 0.00 56 1016.3
20260508154541 17 28 0.0 0.0 0.00 0.00 0.00 56 1016.3
20260508153025 18 29 0.0 0.0 0.00 0.00 0.00 56 1016.4
20260508151524 18 42 0.0 0.0 0.00 0.00 0.00 58 1016.4
20260508150031 17 26 0.0 0.0 0.00 0.00 0.00 59 1016.5
20260508144523 17 28 0.0 0.0 0.00 0.00 0.00 59 1016.5
20260508143023 17 24 0.0 0.0 0.00 0.00 0.00 57 1016.7
20260508141529 17 23 0.0 0.0 0.00 0.00 0.00 59 1016.7
20260508140022 17 28 0.0 0.0 0.00 0.00 0.00 60 1016.8
20260508134521 17 28 0.0 0.0 0.00 0.00 0.00 60 1016.9
20260508133039 18 25 0.0 0.0 0.00 0.00 0.00 60 1016.8
20260508131520 18 18 0.0 0.0 0.00 0.00 0.00 57 1016.8
20260508130022 19 32 0.0 0.0 0.00 0.00 0.00 60 1016.8
20260508124524 18 23 0.0 0.0 0.00 0.00 0.00 57 1016.9
20260508123031 19 32 0.0 0.0 0.00 0.00 0.00 59 1016.9
20260508121520 18 29 0.0 0.0 0.00 0.00 0.00 62 1016.9